map of ROI home
Great Circle Mapper logo
ROI - Airport
Location
City:  Roi Et, Thailand
ICAO / IATA:VTUV / ROI

Details
Type:Airport (Aerodrome, Airfield)
Latitude:1607'00"N (16.116761)
Longitude:10346'26"E (103.773797)
Datum:WGS 1984
Elevation:451 ft (137 m)
Runways:1
Longest:6890 × 148 ft (2100 × 45 m), paved

Time
Time Zone:UTC+7
Local Time:

Weather
METAR:VTUV 022300Z 17003KT 8000 FEW018 SCT100 BKN300 24/23 Q1010 A2983 INFO X RWY 36
TAF:VTUV 020500Z 0206/0306 VRB10KT 5000 TSRA FEW018CB BKN025 OVC120
BECMG 0207/0209 16005KT 9999 SCT025 SCT120
TEMPO 0214/0219 VRB10KT 5000 TSRA FEW018CB BKN025 OVC120

Related Locations
Nearby:
Farthest:SJA: 12351 mi / 19877 km
San Juan (San Juan de Marcona), PE

Find:

   beyond  
but within

Other Information
Maps:
NOTAMs:
Links:
Sources:

  
flag of Thailand   

Sectional Chart

Flight Planning
at skyvector.com

Satellite Image

Google Maps Satellite View

 

Copyright © 2004-2014 Karl L. Swartz. All rights reserved.
The Great Circle Mapper name and logo are trademarks of the Great Circle Mapper.
All other trademarks mentioned herein belong to their respective owners.
Please see credits for attibutions and further copyright information.

  Follow gcmap on Facebook Follow gcmap on Twitter

hCard Microformat

Geo Microformat